When you browse on this site, cookies collect data to enhance your experience and personalize the content and advertising you see.
Visit our Privacy Policy to learn more. By continuing to use the site, you agree to this use of cookies and data.
  • In Hungary
  • List of Countries
  • For 7 days
  • Water Temperature
  • Satellite Maps
  • Weather Map
  • News
  • Weather Widgets
  • user-avatar
    Login

    Hourly Weather Arakaka

    Today, 16 January, Wednesday

    Time Temperature Precipitation Wind Pressure Humidity
    00:00 +22°C° 0 mm 0 mps 755 mmHg 99%
    01:00 +21°C° 0 mm 0 mps 755 mmHg 99%
    02:00 +21°C° 0 mm 0 mps 755 mmHg 99%
    03:00 +21°C° 0 mm 0 mps 755 mmHg 99%
    04:00 +21°C° 0 mm 0 mps 755 mmHg 99%
    05:00 +21°C° 0 mm 0 mps 755 mmHg 99%
    06:00 +22°C° 0 mm 0 mps 755 mmHg 96%
    07:00 +23°C° 0 mm 0 mps 755 mmHg 94%
    08:00 +24°C° 0 mm 0 mps 756 mmHg 91%
    09:00 +26°C° 0.1 mm 0 mps 756 mmHg 79%
    10:00 +30°C° 0.1 mm 1 mps 756 mmHg 68%
    11:00 +32°C° 0.1 mm 1 mps 756 mmHg 56%
    12:00 +32°C° 0.5 mm 2 mps 755 mmHg 62%
    13:00 +31°C° 0.5 mm 2 mps 755 mmHg 69%
    14:00 +30°C° 0.5 mm 2 mps 754 mmHg 75%
    15:00 +30°C° 0.8 mm 2 mps 754 mmHg 78%
    16:00 +29°C° 0.8 mm 1 mps 753 mmHg 81%
    17:00 +28°C° 0.8 mm 1 mps 753 mmHg 84%
    18:00 +27°C° 0.1 mm 1 mps 754 mmHg 88%
    19:00 +26°C° 0.1 mm 1 mps 754 mmHg 92%
    20:00 +25°C° 0.1 mm 1 mps 754 mmHg 97%
    21:00 +24°C° 0 mm 1 mps 755 mmHg 97%
    22:00 +24°C° 0 mm 1 mps 755 mmHg 98%
    23:00 +22°C° 0 mm 0 mps 756 mmHg 99%

    Tomorrow, 17 January, Thursday

    Time Temperature Precipitation Wind Pressure Humidity
    00:00 +22°C° 0 mm 0 mps 755 mmHg 99%
    01:00 +21°C° 0 mm 0 mps 755 mmHg 99%
    02:00 +21°C° 0 mm 0 mps 755 mmHg 99%
    03:00 +21°C° 0 mm 0 mps 755 mmHg 99%
    04:00 +21°C° 0 mm 0 mps 755 mmHg 99%
    05:00 +21°C° 0 mm 0 mps 755 mmHg 99%
    06:00 +22°C° 0 mm 0 mps 755 mmHg 97%
    07:00 +23°C° 0 mm 0 mps 755 mmHg 94%
    08:00 +23°C° 0 mm 0 mps 756 mmHg 92%
    09:00 +27°C° 0.4 mm 1 mps 756 mmHg 83%
    10:00 +29°C° 0.4 mm 1 mps 756 mmHg 74%
    11:00 +31°C° 0.4 mm 2 mps 756 mmHg 65%
    12:00 +30°C° 1.1 mm 2 mps 755 mmHg 72%
    13:00 +30°C° 1.1 mm 2 mps 754 mmHg 79%
    14:00 +29°C° 1.1 mm 1 mps 753 mmHg 86%
    15:00 +28°C° 0.8 mm 1 mps 753 mmHg 88%
    16:00 +28°C° 0.8 mm 1 mps 753 mmHg 89%
    17:00 +27°C° 0.8 mm 1 mps 753 mmHg 91%
    18:00 +26°C° 0.1 mm 1 mps 753 mmHg 93%
    19:00 +25°C° 0.1 mm 1 mps 754 mmHg 96%
    20:00 +22°C° 0.1 mm 0 mps 754 mmHg 98%
    21:00 +22°C° 0 mm 0 mps 755 mmHg 98%
    22:00 +22°C° 0 mm 0 mps 755 mmHg 98%
    23:00 +22°C° 0 mm 0 mps 755 mmHg 99%

    Day after tomorrow, 18 January, Friday

    Time Temperature Precipitation Wind Pressure Humidity
    00:00 +21°C° 0 mm 0 mps 755 mmHg 99%
    01:00 +21°C° 0 mm 0 mps 754 mmHg 99%
    02:00 +21°C° 0 mm 0 mps 754 mmHg 99%
    03:00 +21°C° 0.1 mm 0 mps 754 mmHg 99%
    04:00 +21°C° 0.1 mm 0 mps 754 mmHg 99%
    05:00 +21°C° 0.1 mm 0 mps 753 mmHg 98%
    06:00 +22°C° 0 mm 0 mps 754 mmHg 96%
    07:00 +25°C° 0 mm 1 mps 754 mmHg 94%
    08:00 +26°C° 0 mm 1 mps 755 mmHg 92%
    09:00 +28°C° 0 mm 1 mps 755 mmHg 79%
    10:00 +31°C° 0 mm 1 mps 755 mmHg 66%
    11:00 +34°C° 0 mm 2 mps 755 mmHg 53%
    12:00 +34°C° 0.2 mm 2 mps 754 mmHg 54%
    13:00 +34°C° 0.2 mm 2 mps 753 mmHg 55%
    14:00 +34°C° 0.2 mm 2 mps 752 mmHg 55%
    15:00 +31°C° 1 mm 2 mps 752 mmHg 66%
    16:00 +29°C° 1 mm 2 mps 752 mmHg 77%
    17:00 +28°C° 1 mm 2 mps 752 mmHg 88%
    18:00 +27°C° 0.3 mm 1 mps 752 mmHg 90%
    19:00 +26°C° 0.3 mm 1 mps 753 mmHg 93%
    20:00 +25°C° 0.3 mm 1 mps 754 mmHg 95%
    21:00 +24°C° 0 mm 1 mps 754 mmHg 96%
    22:00 +24°C° 0 mm 1 mps 754 mmHg 97%
    23:00 +22°C° 0 mm 0 mps 755 mmHg 99%

    19 January, Saturday

    Time Temperature Precipitation Wind Pressure Humidity
    00:00 +21°C° 0 mm 0 mps 754 mmHg 99%
    01:00 +21°C° 0 mm 0 mps 754 mmHg 99%
    02:00 +21°C° 0 mm 0 mps 753 mmHg 99%
    03:00 +21°C° 0 mm 0 mps 753 mmHg 99%
    04:00 +21°C° 0 mm 0 mps 753 mmHg 99%
    05:00 +21°C° 0 mm 0 mps 753 mmHg 99%
    06:00 +22°C° 0 mm 0 mps 754 mmHg 96%
    07:00 +23°C° 0 mm 0 mps 754 mmHg 93%
    08:00 +24°C° 0 mm 0 mps 755 mmHg 90%
    09:00 +28°C° 0 mm 1 mps 755 mmHg 77%
    10:00 +30°C° 0 mm 1 mps 755 mmHg 65%
    11:00 +34°C° 0 mm 2 mps 755 mmHg 52%
    12:00 +34°C° 0.1 mm 2 mps 754 mmHg 51%
    13:00 +35°C° 0.1 mm 2 mps 753 mmHg 49%
    14:00 +35°C° 0.1 mm 2 mps 752 mmHg 48%
    15:00 +32°C° 0.7 mm 2 mps 752 mmHg 59%
    16:00 +31°C° 0.7 mm 1 mps 752 mmHg 71%
    17:00 +29°C° 0.7 mm 1 mps 751 mmHg 82%
    18:00 +27°C° 0.1 mm 1 mps 752 mmHg 85%
    19:00 +26°C° 0.1 mm 1 mps 753 mmHg 88%
    20:00 +25°C° 0.1 mm 1 mps 754 mmHg 91%
    21:00 +24°C° 0 mm 1 mps 754 mmHg 94%
    22:00 +24°C° 0 mm 1 mps 754 mmHg 96%
    23:00 +21°C° 0 mm 0 mps 754 mmHg 98%

    20 January, Sunday

    Time Temperature Precipitation Wind Pressure Humidity
    00:00 +21°C° 0 mm 0 mps 754 mmHg 98%
    01:00 +21°C° 0 mm 0 mps 754 mmHg 99%
    02:00 +21°C° 0 mm 0 mps 753 mmHg 99%
    03:00 +21°C° 0 mm 0 mps 753 mmHg 99%
    04:00 +21°C° 0 mm 0 mps 753 mmHg 99%
    05:00 +20°C° 0 mm 0 mps 754 mmHg 99%
    06:00 +21°C° 0 mm 0 mps 754 mmHg 95%
    07:00 +23°C° 0 mm 0 mps 755 mmHg 91%
    08:00 +24°C° 0 mm 0 mps 755 mmHg 87%
    09:00 +28°C° 0 mm 1 mps 755 mmHg 74%
    10:00 +31°C° 0 mm 1 mps 755 mmHg 61%
    11:00 +34°C° 0 mm 2 mps 755 mmHg 48%
    12:00 +33°C° 0 mm 1 mps 754 mmHg 48%
    13:00 +33°C° 0 mm 1 mps 754 mmHg 48%
    14:00 +33°C° 0 mm 1 mps 753 mmHg 49%
    15:00 +32°C° 0 mm 1 mps 752 mmHg 52%
    16:00 +31°C° 0 mm 1 mps 752 mmHg 55%
    17:00 +31°C° 0 mm 1 mps 752 mmHg 58%
    18:00 +29°C° 0 mm 1 mps 752 mmHg 65%
    19:00 +28°C° 0 mm 1 mps 753 mmHg 72%
    20:00 +26°C° 0 mm 2 mps 753 mmHg 79%
    21:00 +25°C° 0 mm 1 mps 753 mmHg 84%
    22:00 +24°C° 0 mm 1 mps 754 mmHg 90%
    23:00 +24°C° 0 mm 1 mps 754 mmHg 96%

    21 January, Monday

    Time Temperature Precipitation Wind Pressure Humidity
    00:00 +23°C° 0 mm 1 mps 754 mmHg 97%
    01:00 +21°C° 0 mm 0 mps 753 mmHg 98%
    02:00 +21°C° 0 mm 0 mps 753 mmHg 99%
    03:00 +20°C° 0 mm 0 mps 753 mmHg 99%
    04:00 +20°C° 0 mm 0 mps 753 mmHg 99%
    05:00 +20°C° 0 mm 0 mps 753 mmHg 99%
    06:00 +21°C° 0 mm 0 mps 754 mmHg 94%
    07:00 +22°C° 0 mm 0 mps 754 mmHg 89%
    08:00 +24°C° 0 mm 0 mps 755 mmHg 84%
    09:00 +28°C° 0 mm 1 mps 755 mmHg 72%
    10:00 +31°C° 0 mm 1 mps 755 mmHg 59%
    11:00 +34°C° 0 mm 2 mps 755 mmHg 46%
    12:00 +35°C° 0 mm 2 mps 754 mmHg 45%
    13:00 +35°C° 0 mm 2 mps 754 mmHg 43%
    14:00 +36°C° 0 mm 2 mps 753 mmHg 42%
    15:00 +35°C° 0 mm 2 mps 752 mmHg 45%
    16:00 +34°C° 0 mm 2 mps 752 mmHg 48%
    17:00 +32°C° 0 mm 2 mps 752 mmHg 52%
    18:00 +30°C° 0 mm 2 mps 752 mmHg 60%
    19:00 +28°C° 0 mm 2 mps 753 mmHg 68%
    20:00 +27°C° 0 mm 2 mps 754 mmHg 77%
    21:00 +26°C° 0 mm 1 mps 754 mmHg 83%
    22:00 +24°C° 0 mm 1 mps 754 mmHg 90%
    23:00 +23°C° 0 mm 1 mps 754 mmHg 97%
    Show more